Location: Aufkirchen
(47.9603°N, 11.3653°E)
Time: 14:36:07
(UTC+01:00)

Transit 2A Rocket - Pass Details

Date: 12 December 2020
Orbit: 592 x 910 km, 66.7° (Epoch: 21 January)

Event Time Altitude Azimuth Distance (km) Brightness Sun altitude
Rises 00:22:11 0° 241° (WSW) 3,461 - -65.0°
Reaches altitude 10° 00:24:56 10° 249° (WSW) 2,489 - -64.9°
Maximum altitude 00:30:13 36° 316° (NW) 1,262 - -64.7°
Drops below altitude 10° 00:35:09 10° 23° (NNE) 2,313 - -64.6°
Sets 00:37:38 0° 32° (NNE) 3,187 - -64.5°
